QPF
0.01 0.01 0.01 0.01 0.01 0.01 0.00 0.00 0.01 0.01 0.01 0.01 0.01 0.01 0.01 0.02 0.03 0.02 0.02 0.01 0.01 0.01 0.01 0.01 0.01 0.02 0.02 0.02 0.02 0.02 0.02 0.02 0.02 0.03 0.05 0.06 0.08 0.10 0.10 0.09 0.08 0.08 0.08 0.07
0.01 0.01 0.01 0.01 0.01 0.01 0.01 0.00 0.00 0.00 0.01 0.01 0.01 0.01 0.01 0.02 0.03 0.02 0.02 0.02 0.01 0.01 0.01 0.01 0.01 0.01 0.01 0.02 0.02 0.03 0.03 0.03 0.03 0.03 0.03 0.03 0.03 0.05 0.08 0.09 0.09 0.08 0.08 0.07
0.00 0.00 0.00 0.00 0.00 0.01 0.01 0.00 0.01 0.01 0.01 0.01 0.01 0.01 0.02 0.02 0.03 0.02 0.02 0.02 0.01 0.01 0.01 0.01 0.01 0.02 0.03 0.04 0.04 0.04 0.04 0.03 0.03 0.04 0.04 0.03 0.03 0.03 0.03 0.03 0.04 0.04 0.05 0.06
0.00 0.00 0.01 0.00 0.00 0.00 0.00 0.00 0.00 0.00 0.00 0.01 0.01 0.01 0.02 0.02 0.03 0.03 0.02 0.02 0.01 0.01 0.01 0.02 0.03 0.03 0.03 0.03 0.04 0.05 0.05 0.05 0.04 0.03 0.04 0.05 0.04 0.04 0.03 0.02 0.03 0.03 0.04 0.05
0.00 0.00 0.01 0.01 0.00 0.00 0.00 0.00 0.00 0.00 0.01 0.01 0.01 0.02 0.02 0.02 0.03 0.04 0.03 0.02 0.02 0.01 0.01 0.02 0.03 0.04 0.04 0.04 0.05 0.05 0.06 0.05 0.05 0.04 0.04 0.04 0.05 0.05 0.03 0.03 0.03 0.03 0.03 0.04
0.01 0.01 0.01 0.01 0.00 0.00 0.00 0.00 0.00 0.01 0.01 0.01 0.02 0.02 0.01 0.01 0.02 0.05 0.04 0.03 0.02 0.02 0.01 0.02 0.04 0.04 0.05 0.05 0.04 0.04 0.04 0.04 0.05 0.05 0.04 0.04 0.04 0.04 0.04 0.04 0.04 0.03 0.03 0.03
0.01 0.01 0.01 0.00 0.00 0.01 0.01 0.01 0.01 0.01 0.01 0.01 0.02 0.02 0.02 0.02 0.02 0.04 0.05 0.03 0.03 0.02 0.03 0.03 0.04 0.04 0.05 0.05 0.04 0.03 0.04 0.05 0.05 0.05 0.05 0.04 0.05 0.05 0.06 0.05 0.04 0.04 0.03 0.03
0.01 0.01 0.01 0.01 0.01 0.01 0.01 0.01 0.01 0.01 0.01 0.01 0.02 0.02 0.02 0.02 0.02 0.02 0.03 0.03 0.03 0.03 0.03 0.03 0.04 0.05 0.05 0.05 0.05 0.06 0.06 0.05 0.05 0.05 0.06 0.06 0.06 0.05 0.04 0.04 0.03 0.03 0.02 0.02
0.01 0.01 0.01 0.01 0.01 0.01 0.01 0.01 0.01 0.01 0.01 0.02 0.03 0.02 0.02 0.01 0.01 0.01 0.02 0.03 0.03 0.03 0.04 0.03 0.03 0.05 0.06 0.06 0.06 0.05 0.07 0.06 0.07 0.06 0.06 0.05 0.05 0.04 0.03 0.03 0.02 0.02 0.02 0.02
0.01 0.01 0.01 0.01 0.01 0.01 0.02 0.02 0.03 0.03 0.02 0.02 0.04 0.02 0.02 0.02 0.02 0.01 0.01 0.02 0.03 0.02 0.04 0.03 0.02 0.03 0.04 0.06 0.07 0.07 0.06 0.06 0.06 0.08 0.07 0.05 0.05 0.04 0.03 0.02 0.02 0.02 0.02 0.02
0.01 0.01 0.02 0.02 0.01 0.01 0.02 0.03 0.03 0.03 0.03 0.04 0.06 0.05 0.03 0.02 0.02 0.02 0.02 0.02 0.02 0.02 0.02 0.04 0.03 0.03 0.03 0.04 0.06 0.07 0.07 0.07 0.07 0.07 0.06 0.04 0.03 0.03 0.02 0.02 0.02 0.02 0.02 0.02
0.03 0.03 0.03 0.02 0.02 0.02 0.03 0.04 0.04 0.04 0.04 0.05 0.06 0.06 0.04 0.03 0.02 0.02 0.02 0.02 0.02 0.03 0.02 0.03 0.03 0.02 0.02 0.03 0.04 0.05 0.06 0.07 0.08 0.09 0.07 0.05 0.04 0.03 0.03 0.03 0.04 0.03 0.03 0.02
0.04 0.03 0.02 0.02 0.02 0.02 0.03 0.05 0.07 0.05 0.04 0.05 0.04 0.04 0.04 0.03 0.02 0.01 0.01 0.01 0.01 0.02 0.02 0.02 0.02 0.02 0.02 0.02 0.02 0.04 0.05 0.05 0.06 0.08 0.08 0.07 0.06 0.04 0.03 0.03 0.04 0.05 0.04 0.04
0.04 0.02 0.02 0.02 0.02 0.02 0.03 0.06 0.08 0.06 0.04 0.04 0.04 0.03 0.03 0.02 0.02 0.01 0.01 0.01 0.01 0.01 0.01 0.02 0.02 0.02 0.02 0.02 0.02 0.02 0.04 0.05 0.05 0.07 0.07 0.07 0.08 0.07 0.05 0.04 0.03 0.05 0.06 0.05
0.05 0.05 0.04 0.03 0.03 0.02 0.02 0.03 0.06 0.06 0.05 0.04 0.03 0.02 0.02 0.01 0.01 0.01 0.01 0.01 0.02 0.02 0.02 0.01 0.02 0.02 0.02 0.02 0.02 0.02 0.03 0.04 0.05 0.08 0.09 0.08 0.08 0.07 0.06 0.06 0.06 0.06 0.06 0.05
0.03 0.04 0.04 0.03 0.03 0.02 0.02 0.02 0.03 0.04 0.03 0.03 0.02 0.01 0.01 0.01 0.00 0.00 0.01 0.01 0.02 0.02 0.02 0.01 0.01 0.01 0.02 0.02 0.02 0.02 0.02 0.03 0.04 0.06 0.09 0.10 0.08 0.07 0.07 0.06 0.06 0.07 0.07 0.07
0.02 0.02 0.02 0.01 0.01 0.01 0.01 0.01 0.01 0.02 0.02 0.02 0.02 0.01 0.02 0.01 0.01 0.01 0.01 0.02 0.03 0.03 0.02 0.02 0.01 0.01 0.01 0.02 0.01 0.01 0.01 0.02 0.03 0.04 0.05 0.08 0.09 0.08 0.08 0.07 0.07 0.08 0.08 0.08
0.01 0.01 0.01 0.02 0.01 0.01 0.01 0.01 0.01 0.01 0.01 0.01 0.01 0.01 0.01 0.02 0.02 0.02 0.03 0.03 0.03 0.03 0.02 0.02 0.01 0.00 0.01 0.01 0.01 0.01 0.01 0.01 0.02 0.02 0.04 0.05 0.05 0.05 0.05 0.05 0.05 0.06 0.06 0.06
0.01 0.01 0.01 0.03 0.02 0.01 0.01 0.01 0.01 0.01 0.01 0.01 0.01 0.01 0.01 0.01 0.01 0.02 0.03 0.03 0.03 0.04 0.03 0.02 0.01 0.01 0.01 0.02 0.02 0.02 0.02 0.01 0.02 0.02 0.02 0.03 0.02 0.02 0.02 0.02 0.02 0.03 0.04 0.05
0.00 0.00 0.01 0.03 0.02 0.01 0.01 0.02 0.02 0.01 0.01 0.01 0.02 0.02 0.02 0.02 0.02 0.03 0.03 0.03 0.03 0.03 0.03 0.03 0.02 0.01 0.01 0.01 0.01 0.01 0.01 0.01 0.01 0.01 0.02 0.02 0.02 0.02 0.01 0.01 0.01 0.02 0.03 0.03
0.00 0.01 0.02 0.03 0.03 0.02 0.02 0.02 0.02 0.02 0.02 0.02 0.02 0.02 0.02 0.02 0.02 0.02 0.02 0.03 0.02 0.02 0.02 0.03 0.02 0.02 0.01 0.01 0.00 0.01 0.01 0.02 0.02 0.01 0.01 0.02 0.03 0.02 0.02 0.01 0.01 0.02 0.03 0.02
0.01 0.02 0.03 0.04 0.03 0.03 0.02 0.02 0.02 0.02 0.02 0.03 0.04 0.03 0.03 0.03 0.02 0.01 0.01 0.01 0.01 0.02 0.02 0.02 0.01 0.01 0.01 0.02 0.01 0.01 0.01 0.01 0.02 0.01 0.01 0.01 0.02 0.02 0.01 0.01 0.02 0.03 0.03 0.01
0.03 0.03 0.04 0.05 0.04 0.03 0.03 0.03 0.03 0.02 0.02 0.03 0.04 0.04 0.04 0.03 0.02 0.01 0.01 0.01 0.01 0.01 0.02 0.01 0.01 0.01 0.01 0.01 0.01 0.01 0.01 0.01 0.01 0.01 0.01 0.01 0.02 0.02 0.02 0.01 0.02 0.03 0.03 0.02
0.03 0.03 0.04 0.05 0.04 0.04 0.04 0.03 0.03 0.03 0.02 0.02 0.02 0.02 0.02 0.02 0.01 0.01 0.01 0.01 0.01 0.02 0.02 0.03 0.02 0.02 0.01 0.01 0.01 0.02 0.01 0.01 0.01 0.01 0.01 0.01 0.01 0.02 0.02 0.02 0.02 0.03 0.04 0.03
0.02 0.02 0.03 0.04 0.04 0.04 0.03 0.02 0.02 0.02 0.02 0.02 0.02 0.02 0.02 0.01 0.01 0.02 0.02 0.02 0.03 0.04 0.05 0.05 0.04 0.03 0.02 0.01 0.01 0.01 0.02 0.01 0.01 0.01 0.01 0.01 0.01 0.02 0.02 0.03 0.03 0.03 0.03 0.03
0.01 0.01 0.02 0.03 0.05 0.04 0.03 0.02 0.02 0.02 0.01 0.01 0.01 0.01 0.02 0.03 0.03 0.04 0.04 0.04 0.04 0.04 0.04 0.04 0.03 0.03 0.03 0.03 0.01 0.00 0.01 0.01 0.01 0.01 0.01 0.01 0.01 0.02 0.02 0.02 0.02 0.02 0.02 0.03
0.01 0.01 0.02 0.02 0.03 0.04 0.05 0.05 0.04 0.02 0.01 0.01 0.01 0.02 0.03 0.03 0.03 0.03 0.03 0.02 0.02 0.02 0.01 0.01 0.01 0.01 0.02 0.03 0.02 0.01 0.00 0.00 0.00 0.01 0.01 0.01 0.01 0.01 0.01 0.01 0.02 0.02 0.02 0.03
MSLP
1011.88 1011.72 1011.56 1011.37 1011.14 1010.86 1010.50 1010.07 1009.59 1009.07 1008.58 1008.13 1007.79 1007.57 1007.48 1007.52 1007.66 1007.86 1008.06 1008.22 1008.29 1008.26 1008.09 1007.81 1007.42 1006.93 1006.37 1005.75 1005.07 1004.34 1003.58 1002.80 1002.00 1001.24 1000.54 999.97 999.55 999.34 999.34 999.57 1000.00 1000.59 1001.30 1002.06
1011.71 1011.40 1011.05 1010.66 1010.22 1009.73 1009.21 1008.68 1008.15 1007.66 1007.25 1006.93 1006.75 1006.70 1006.77 1006.94 1007.18 1007.43 1007.66 1007.82 1007.89 1007.84 1007.68 1007.42 1007.07 1006.64 1006.15 1005.60 1005.00 1004.36 1003.66 1002.92 1002.17 1001.42 1000.74 1000.16 999.72 999.48 999.44 999.61 999.98 1000.50 1001.14 1001.83
1011.63 1011.19 1010.69 1010.12 1009.51 1008.86 1008.21 1007.59 1007.03 1006.55 1006.20 1005.99 1005.92 1005.99 1006.17 1006.43 1006.72 1007.01 1007.25 1007.40 1007.46 1007.41 1007.26 1007.03 1006.72 1006.36 1005.94 1005.47 1004.96 1004.39 1003.76 1003.10 1002.40 1001.71 1001.06 1000.50 1000.08 999.82 999.74 999.86 1000.15 1000.58 1001.11 1001.69
1011.72 1011.17 1010.54 1009.85 1009.12 1008.37 1007.63 1006.95 1006.36 1005.90 1005.57 1005.41 1005.40 1005.53 1005.75 1006.04 1006.35 1006.63 1006.85 1006.99 1007.03 1006.98 1006.84 1006.64 1006.38 1006.07 1005.72 1005.33 1004.90 1004.41 1003.87 1003.28 1002.66 1002.05 1001.47 1000.96 1000.57 1000.32 1000.22 1000.29 1000.50 1000.82 1001.21 1001.64
1011.98 1011.35 1010.64 1009.87 1009.07 1008.26 1007.48 1006.77 1006.17 1005.70 1005.39 1005.23 1005.23 1005.34 1005.55 1005.80 1006.06 1006.30 1006.47 1006.57 1006.59 1006.53 1006.40 1006.22 1006.01 1005.75 1005.47 1005.15 1004.79 1004.38 1003.92 1003.43 1002.91 1002.39 1001.90 1001.47 1001.14 1000.92 1000.83 1000.85 1000.98 1001.18 1001.43 1001.69
1012.36 1011.66 1010.91 1010.10 1009.27 1008.45 1007.67 1006.96 1006.36 1005.89 1005.56 1005.38 1005.33 1005.38 1005.51 1005.68 1005.85 1006.00 1006.10 1006.14 1006.12 1006.04 1005.92 1005.77 1005.59 1005.38 1005.15 1004.90 1004.60 1004.27 1003.90 1003.50 1003.09 1002.68 1002.30 1001.97 1001.72 1001.55 1001.48 1001.47 1001.53 1001.62 1001.73 1001.82
1012.73 1011.98 1011.19 1010.38 1009.56 1008.76 1008.01 1007.33 1006.74 1006.27 1005.92 1005.69 1005.57 1005.53 1005.55 1005.61 1005.66 1005.70 1005.70 1005.68 1005.61 1005.52 1005.40 1005.26 1005.11 1004.95 1004.77 1004.56 1004.33 1004.07 1003.78 1003.47 1003.16 1002.86 1002.60 1002.38 1002.23 1002.13 1002.08 1002.07 1002.08 1002.09 1002.07 1002.02
1012.92 1012.13 1011.33 1010.52 1009.73 1008.97 1008.26 1007.63 1007.08 1006.62 1006.26 1005.98 1005.79 1005.66 1005.56 1005.49 1005.43 1005.35 1005.27 1005.18 1005.07 1004.95 1004.83 1004.72 1004.59 1004.46 1004.32 1004.16 1003.98 1003.78 1003.55 1003.33 1003.11 1002.92 1002.76 1002.65 1002.59 1002.56 1002.56 1002.56 1002.54 1002.49 1002.39 1002.23
1012.82 1011.98 1011.15 1010.34 1009.58 1008.87 1008.22 1007.64 1007.14 1006.71 1006.36 1006.06 1005.82 1005.62 1005.43 1005.26 1005.10 1004.94 1004.78 1004.64 1004.50 1004.38 1004.26 1004.16 1004.07 1003.97 1003.86 1003.73 1003.58 1003.42 1003.25 1003.09 1002.94 1002.83 1002.76 1002.73 1002.75 1002.78 1002.82 1002.85 1002.82 1002.74 1002.59 1002.37
1012.32 1011.41 1010.54 1009.72 1008.97 1008.30 1007.70 1007.19 1006.75 1006.38 1006.06 1005.79 1005.54 1005.31 1005.09 1004.87 1004.66 1004.45 1004.26 1004.09 1003.95 1003.83 1003.73 1003.66 1003.59 1003.51 1003.43 1003.32 1003.20 1003.06 1002.92 1002.79 1002.69 1002.62 1002.60 1002.63 1002.69 1002.77 1002.84 1002.88 1002.86 1002.77 1002.61 1002.37
1011.43 1010.43 1009.49 1008.64 1007.88 1007.23 1006.68 1006.23 1005.87 1005.57 1005.33 1005.12 1004.93 1004.73 1004.53 1004.33 1004.12 1003.93 1003.74 1003.59 1003.46 1003.37 1003.30 1003.25 1003.21 1003.16 1003.09 1003.00 1002.89 1002.76 1002.62 1002.50 1002.41 1002.35 1002.35 1002.38 1002.46 1002.54 1002.62 1002.66 1002.65 1002.57 1002.40 1002.18
1010.24 1009.14 1008.11 1007.19 1006.39 1005.74 1005.22 1004.83 1004.55 1004.35 1004.22 1004.12 1004.03 1003.94 1003.82 1003.70 1003.56 1003.42 1003.29 1003.18 1003.10 1003.05 1003.02 1003.00 1002.98 1002.95 1002.90 1002.82 1002.70 1002.57 1002.43 1002.29 1002.18 1002.10 1002.07 1002.08 1002.12 1002.18 1002.23 1002.26 1002.24 1002.16 1002.02 1001.82
1008.94 1007.71 1006.58 1005.57 1004.72 1004.04 1003.54 1003.20 1003.00 1002.92 1002.92 1002.96 1003.01 1003.06 1003.09 1003.08 1003.06 1003.02 1002.97 1002.93 1002.90 1002.90 1002.90 1002.92 1002.92 1002.92 1002.88 1002.80 1002.69 1002.55 1002.39 1002.23 1002.08 1001.97 1001.88 1001.84 1001.82 1001.82 1001.82 1001.81 1001.76 1001.67 1001.55 1001.39
1007.70 1006.37 1005.13 1004.02 1003.10 1002.39 1001.89 1001.60 1001.48 1001.51 1001.64 1001.84 1002.06 1002.28 1002.46 1002.61 1002.71 1002.78 1002.82 1002.86 1002.89 1002.92 1002.96 1003.00 1003.03 1003.03 1003.01 1002.94 1002.84 1002.70 1002.54 1002.36 1002.18 1002.02 1001.88 1001.77 1001.68 1001.60 1001.54 1001.47 1001.38 1001.28 1001.16 1001.04
1006.71 1005.29 1003.96 1002.77 1001.79 1001.05 1000.54 1000.28 1000.23 1000.36 1000.63 1000.97 1001.36 1001.74 1002.08 1002.37 1002.59 1002.77 1002.89 1002.98 1003.05 1003.10 1003.16 1003.21 1003.24 1003.26 1003.26 1003.22 1003.13 1003.02 1002.86 1002.69 1002.50 1002.31 1002.13 1001.96 1001.80 1001.66 1001.53 1001.40 1001.27 1001.15 1001.04 1000.94
1006.08 1004.60 1003.22 1001.98 1000.95 1000.18 999.68 999.44 999.45 999.66 1000.04 1000.51 1001.03 1001.54 1002.02 1002.42 1002.74 1002.98 1003.15 1003.26 1003.34 1003.40 1003.44 1003.49 1003.52 1003.55 1003.57 1003.56 1003.52 1003.44 1003.34 1003.20 1003.03 1002.85 1002.65 1002.45 1002.26 1002.06 1001.88 1001.70 1001.54 1001.40 1001.29 1001.22
1005.84 1004.36 1002.96 1001.70 1000.66 999.88 999.39 999.17 999.22 999.50 999.95 1000.51 1001.13 1001.73 1002.28 1002.75 1003.12 1003.39 1003.57 1003.67 1003.72 1003.74 1003.76 1003.77 1003.80 1003.83 1003.87 1003.91 1003.93 1003.92 1003.88 1003.81 1003.71 1003.57 1003.40 1003.21 1003.01 1002.80 1002.60 1002.40 1002.23 1002.08 1001.98 1001.94
1005.95 1004.52 1003.15 1001.91 1000.89 1000.12 999.64 999.45 999.53 999.84 1000.34 1000.94 1001.60 1002.25 1002.83 1003.32 1003.69 1003.94 1004.08 1004.13 1004.13 1004.09 1004.05 1004.03 1004.03 1004.07 1004.13 1004.22 1004.30 1004.38 1004.44 1004.47 1004.45 1004.39 1004.29 1004.16 1003.99 1003.80 1003.61 1003.43 1003.27 1003.14 1003.07 1003.05
1006.31 1004.97 1003.67 1002.50 1001.52 1000.79 1000.33 1000.16 1000.26 1000.58 1001.08 1001.69 1002.35 1002.99 1003.56 1004.02 1004.34 1004.54 1004.61 1004.59 1004.51 1004.40 1004.30 1004.23 1004.20 1004.23 1004.32 1004.45 1004.61 1004.78 1004.94 1005.07 1005.17 1005.21 1005.21 1005.15 1005.05 1004.93 1004.79 1004.65 1004.53 1004.44 1004.40 1004.43
1006.81 1005.57 1004.38 1003.29 1002.37 1001.69 1001.26 1001.11 1001.20 1001.52 1002.00 1002.59 1003.21 1003.81 1004.33 1004.73 1004.99 1005.11 1005.11 1005.01 1004.85 1004.67 1004.50 1004.38 1004.33 1004.35 1004.45 1004.62 1004.85 1005.10 1005.35 1005.58 1005.78 1005.94 1006.03 1006.07 1006.06 1006.01 1005.94 1005.87 1005.81 1005.78 1005.79 1005.87
1007.33 1006.21 1005.12 1004.13 1003.29 1002.65 1002.26 1002.11 1002.19 1002.48 1002.93 1003.47 1004.04 1004.57 1005.03 1005.36 1005.55 1005.61 1005.54 1005.37 1005.14 1004.90 1004.69 1004.53 1004.45 1004.47 1004.58 1004.78 1005.04 1005.35 1005.67 1005.98 1006.27 1006.51 1006.69 1006.82 1006.89 1006.93 1006.94 1006.94 1006.95 1006.98 1007.06 1007.18
1007.81 1006.81 1005.82 1004.91 1004.13 1003.54 1003.17 1003.02 1003.08 1003.34 1003.73 1004.21 1004.72 1005.19 1005.58 1005.85 1005.99 1006.00 1005.88 1005.67 1005.41 1005.14 1004.90 1004.72 1004.63 1004.64 1004.75 1004.96 1005.24 1005.58 1005.94 1006.30 1006.63 1006.93 1007.18 1007.37 1007.51 1007.62 1007.70 1007.77 1007.85 1007.94 1008.07 1008.24
1008.21 1007.30 1006.40 1005.56 1004.84 1004.28 1003.91 1003.76 1003.79 1004.00 1004.34 1004.76 1005.21 1005.62 1005.96 1006.19 1006.30 1006.28 1006.15 1005.94 1005.67 1005.40 1005.16 1004.99 1004.90 1004.90 1005.02 1005.22 1005.51 1005.84 1006.21 1006.57 1006.92 1007.24 1007.51 1007.74 1007.93 1008.08 1008.21 1008.34 1008.47 1008.62 1008.79 1008.99
1008.53 1007.69 1006.85 1006.06 1005.38 1004.84 1004.48 1004.30 1004.31 1004.47 1004.76 1005.12 1005.51 1005.88 1006.18 1006.39 1006.49 1006.48 1006.37 1006.18 1005.95 1005.72 1005.51 1005.36 1005.29 1005.30 1005.41 1005.61 1005.87 1006.19 1006.53 1006.87 1007.20 1007.51 1007.78 1008.01 1008.21 1008.39 1008.55 1008.71 1008.87 1009.06 1009.26 1009.48
1008.75 1007.97 1007.18 1006.43 1005.78 1005.25 1004.89 1004.69 1004.66 1004.78 1005.02 1005.33 1005.68 1006.01 1006.29 1006.50 1006.61 1006.63 1006.56 1006.43 1006.26 1006.08 1005.93 1005.82 1005.78 1005.82 1005.93 1006.12 1006.36 1006.64 1006.94 1007.24 1007.54 1007.81 1008.05 1008.26 1008.46 1008.63 1008.80 1008.98 1009.16 1009.36 1009.57 1009.80
1008.87 1008.14 1007.39 1006.68 1006.05 1005.54 1005.17 1004.96 1004.91 1004.99 1005.19 1005.46 1005.77 1006.07 1006.34 1006.56 1006.69 1006.75 1006.74 1006.68 1006.58 1006.48 1006.40 1006.35 1006.35 1006.42 1006.54 1006.72 1006.94 1007.19 1007.45 1007.71 1007.95 1008.18 1008.39 1008.58 1008.75 1008.91 1009.08 1009.25 1009.43 1009.63 1009.84 1010.06
1008.87 1008.18 1007.48 1006.81 1006.22 1005.73 1005.38 1005.17 1005.10 1005.16 1005.32 1005.56 1005.84 1006.12 1006.39 1006.61 1006.77 1006.87 1006.92 1006.92 1006.90 1006.88 1006.86 1006.88 1006.94 1007.04 1007.18 1007.36 1007.57 1007.79 1008.02 1008.24 1008.45 1008.64 1008.82 1008.98 1009.13 1009.28 1009.43 1009.60 1009.78 1009.96 1010.16 1010.36
Thickness
5670 5678 5680 5680 5680 5679 5674 5671 5667 5674 5678 5686 5690 5692 5693 5695 5696 5696 5697 5697 5696 5695 5695 5695 5695 5695 5694 5694 5694 5694 5692 5690 5689 5688 5687 5686 5685 5684 5682 5681 5679 5677 5676 5675
5663 5671 5673 5672 5675 5676 5676 5675 5673 5675 5675 5686 5688 5688 5687 5688 5689 5690 5690 5691 5691 5690 5689 5688 5688 5688 5688 5689 5689 5688 5686 5685 5684 5682 5681 5680 5679 5677 5676 5674 5672 5670 5669 5668
5645 5658 5661 5654 5666 5669 5671 5673 5671 5668 5674 5679 5679 5681 5682 5683 5684 5684 5684 5685 5683 5683 5683 5682 5682 5682 5682 5682 5682 5681 5680 5680 5678 5677 5675 5674 5673 5671 5668 5666 5664 5662 5662 5660
5632 5643 5636 5653 5666 5668 5667 5667 5669 5670 5672 5674 5674 5675 5677 5677 5676 5676 5677 5678 5677 5676 5676 5676 5676 5676 5676 5676 5676 5675 5674 5674 5672 5671 5669 5667 5666 5663 5660 5658 5656 5655 5655 5653
5620 5624 5633 5648 5658 5659 5658 5659 5664 5662 5663 5665 5667 5668 5668 5670 5670 5670 5671 5671 5671 5670 5670 5670 5670 5670 5669 5668 5668 5668 5668 5667 5667 5665 5663 5660 5658 5655 5653 5651 5650 5649 5648 5647
5616 5620 5621 5639 5654 5658 5655 5649 5657 5657 5656 5656 5658 5653 5657 5664 5663 5663 5663 5664 5664 5663 5663 5663 5663 5663 5662 5661 5660 5660 5661 5661 5661 5659 5657 5654 5651 5648 5646 5644 5643 5642 5640 5639
5612 5613 5622 5638 5647 5650 5636 5640 5651 5651 5650 5649 5649 5650 5653 5656 5656 5655 5656 5656 5656 5655 5654 5655 5656 5655 5654 5654 5653 5654 5654 5653 5652 5651 5650 5648 5644 5641 5639 5637 5635 5634 5632 5631
5604 5606 5615 5635 5637 5634 5635 5642 5644 5644 5644 5643 5643 5645 5646 5647 5647 5647 5646 5647 5648 5647 5647 5647 5647 5646 5645 5645 5647 5646 5646 5645 5644 5644 5643 5641 5637 5634 5632 5630 5628 5626 5625 5625
5607 5611 5621 5626 5630 5633 5633 5634 5637 5637 5638 5638 5637 5638 5639 5639 5638 5638 5638 5638 5639 5639 5638 5638 5638 5637 5636 5637 5638 5638 5637 5637 5636 5635 5634 5632 5630 5627 5625 5623 5621 5620 5619 5619
5603 5612 5618 5622 5625 5627 5628 5629 5631 5632 5632 5632 5632 5632 5632 5631 5630 5630 5630 5630 5630 5630 5629 5629 5629 5629 5629 5629 5630 5630 5629 5628 5627 5626 5625 5623 5622 5620 5618 5617 5616 5615 5614 5613
5599 5607 5612 5617 5619 5621 5622 5622 5623 5624 5625 5625 5626 5625 5625 5623 5622 5622 5622 5622 5622 5621 5620 5620 5621 5621 5621 5621 5622 5621 5619 5619 5618 5617 5615 5614 5614 5612 5611 5611 5610 5610 5609 5609
5596 5603 5603 5608 5614 5616 5615 5615 5616 5617 5617 5617 5618 5617 5617 5616 5615 5614 5614 5614 5614 5613 5613 5613 5613 5613 5614 5614 5613 5612 5610 5610 5609 5608 5607 5606 5605 5604 5604 5604 5603 5603 5602 5602
5598 5602 5601 5605 5608 5610 5610 5610 5610 5611 5611 5609 5610 5610 5610 5608 5607 5607 5607 5607 5606 5606 5606 5606 5606 5607 5607 5606 5605 5604 5602 5602 5601 5600 5599 5599 5598 5598 5597 5596 5596 5596 5596 5596
5594 5595 5595 5598 5600 5603 5604 5604 5604 5604 5604 5603 5603 5602 5602 5601 5600 5599 5599 5599 5599 5598 5598 5598 5599 5599 5599 5598 5597 5596 5595 5594 5593 5592 5591 5591 5591 5590 5590 5590 5590 5590 5589 5589
5588 5590 5590 5592 5594 5595 5596 5597 5596 5595 5595 5594 5594 5594 5594 5593 5592 5592 5592 5592 5591 5591 5591 5591 5591 5591 5591 5591 5590 5589 5588 5586 5585 5585 5584 5584 5583 5583 5583 5583 5583 5583 5583 5583
5582 5583 5584 5586 5587 5587 5588 5589 5588 5587 5587 5587 5586 5585 5586 5585 5585 5584 5584 5584 5583 5583 5583 5583 5583 5584 5584 5584 5583 5582 5581 5580 5579 5578 5577 5576 5577 5576 5576 5576 5577 5576 5576 5577
5574 5575 5576 5578 5580 5581 5582 5582 5582 5582 5581 5580 5579 5578 5578 5577 5576 5576 5576 5576 5576 5576 5576 5576 5576 5577 5577 5577 5577 5575 5574 5573 5572 5571 5570 5569 5569 5569 5568 5568 5569 5569 5569 5569
5573 5573 5574 5575 5575 5575 5576 5577 5577 5576 5574 5575 5574 5572 5571 5570 5569 5569 5569 5569 5569 5569 5569 5569 5570 5571 5571 5571 5570 5569 5568 5567 5566 5565 5564 5563 5562 5562 5561 5561 5562 5563 5563 5563
5568 5569 5569 5570 5571 5570 5570 5570 5570 5570 5569 5569 5567 5566 5565 5564 5564 5563 5562 5562 5562 5562 5563 5564 5564 5564 5564 5564 5564 5563 5562 5561 5559 5558 5558 5557 5556 5556 5556 5556 5556 5556 5556 5556
5563 5563 5564 5564 5564 5564 5563 5564 5564 5563 5563 5562 5561 5560 5558 5558 5557 5557 5556 5555 5556 5556 5557 5556 5556 5557 5557 5557 5557 5556 5555 5555 5554 5553 5552 5551 5551 5550 5550 5550 5550 5550 5550 5550
5556 5557 5558 5558 5558 5558 5557 5557 5556 5556 5556 5556 5555 5555 5554 5553 5551 5550 5549 5550 5551 5551 5551 5551 5551 5551 5550 5550 5550 5549 5549 5548 5547 5547 5546 5545 5545 5544 5544 5543 5543 5543 5543 5543
5549 5550 5550 5551 5550 5550 5550 5550 5550 5550 5550 5549 5549 5549 5548 5547 5546 5544 5545 5545 5547 5546 5545 5546 5546 5545 5545 5544 5543 5543 5542 5542 5541 5540 5539 5539 5538 5538 5537 5537 5537 5536 5536 5536
5541 5542 5543 5543 5543 5543 5544 5543 5543 5543 5543 5544 5543 5542 5542 5541 5540 5540 5540 5540 5540 5540 5540 5540 5540 5539 5539 5539 5538 5537 5536 5535 5535 5534 5533 5533 5532 5532 5531 5531 5530 5530 5530 5529
5534 5535 5536 5536 5536 5535 5535 5536 5536 5537 5537 5538 5538 5537 5536 5535 5534 5536 5536 5536 5536 5536 5536 5535 5534 5534 5533 5533 5532 5531 5530 5529 5528 5528 5527 5526 5526 5525 5524 5524 5524 5524 5523 5523
5528 5528 5528 5528 5528 5529 5529 5529 5528 5529 5530 5531 5531 5532 5531 5531 5531 5532 5531 5531 5531 5531 5530 5530 5529 5528 5528 5527 5526 5525 5524 5523 5523 5522 5521 5520 5519 5518 5517 5517 5517 5517 5516 5516
5521 5521 5521 5522 5523 5522 5523 5523 5523 5524 5525 5525 5526 5527 5527 5526 5526 5526 5526 5526 5526 5525 5525 5524 5524 5523 5522 5521 5520 5519 5518 5517 5517 5516 5515 5514 5513 5511 5511 5510 5510 5510 5510 5509
5516 5515 5515 5516 5517 5518 5518 5519 5519 5520 5521 5522 5522 5523 5523 5522 5522 5522 5521 5521 5521 5520 5520 5519 5518 5517 5516 5515 5514 5513 5512 5511 5510 5509 5509 5508 5507 5506 5505 5505 5504 5503 5503 5502